Location: Tel Aviv
(32.0670°N, 34.7670°E)
Time: 02:39:02
(UTC+03:00)

Tiros 1 - Pass Details

Date: 21 January 2022
Orbit: 629 x 663 km, 48.4° (Epoch: 26 May)

Event Time Altitude Azimuth Distance (km) Brightness Sun altitude
Rises 04:09:41 0° 318° (NW) 2,974 - -31.7°
Reaches altitude 10° 04:13:06 10° 343° (NNW) 2,054 - -31.0°
Maximum altitude 04:15:40 14° 16° (NNE) 1,771 - -30.4°
Exits shadow 04:16:19 14° 25° (NNE) 1,788 9.6 -30.3°
Drops below altitude 10° 04:18:14 10° 49° (NE) 2,040 10.2 -29.9°
Sets 04:21:36 0° 74° (ENE) 2,939 11.5 -29.2°
